Weather History for Papa, Hungary

Change the Weather History Date:

Thursday, October 4, 2012

  Actual Average Record
Temperature  
Mean Temperature 58 °F -  
Max Temperature 73 °F - - ()
Min Temperature 44 °F - - ()
Degree Days  
Heating Degree Days 6    
Growing Degree Days 8 (Base 50)    
Moisture  
Dew Point 54 °F    
Average Humidity 79    
Maximum Humidity 100    
Minimum Humidity 57    
Precipitation  
Precipitation 0.00 in - - ()
Sea Level Pressure  
Sea Level Pressure 30.00 in    
Wind  
Wind Speed 5 mph ()    
Max Wind Speed 13 mph    
Max Gust Speed -    
Visibility 5.6 miles    
Events Fog , Rain    
T = Trace of Precipitation, MM = Missing Value Source: Averaged Metar Reports

Daily Weather History Graph

Daily Weather History Graph

Search for Another Location

Airport:

Trip Planner

Search our weather history database for the weather conditions in past years. The results will help you decide how hot, cold, wet, or windy it might be!

Date:

Astronomy

Oct. 04, 2012 Rise Set
Actual Time 6:53 AM CEST 6:23 PM CEST
Civil Twilight 6:22 AM CEST 6:53 PM CEST
Nautical Twilight 5:47 AM CEST 7:29 PM CEST
Astronomical Twilight 5:11 AM CEST 8:04 PM CEST
Moon 8:26 PM CEST (10/4) 11:12 AM CEST (10/4)
Length of Visible Light 12h 30m
Length of Day
11h 29m
Waning Gibbous, 84% of the Moon is Illuminated
Oct 4
Waning Gibbous
Oct 8
Last Quarter
Oct 15
New
Oct 22
First Quarter
Oct 29
Full

Hourly Weather History & Observations

Time (CEST) Temp. Windchill Dew Point Humidity Pressure Visibility Wind Dir Wind Speed Gust Speed Precip Events Conditions
12:15 AM 51.8 °F - 48.2 °F 88% 30.06 in - South 2.2 mph - N/A   Clear
12:45 AM 50.0 °F - 48.2 °F 94% 30.06 in - SSE 4.5 mph - N/A   Clear
1:15 AM 48.2 °F - 46.4 °F 93% 30.06 in - SSE 4.5 mph - N/A   Clear
1:45 AM 48.2 °F - 48.2 °F 100% 30.06 in - SSE 2.2 mph - N/A   Clear
2:15 AM 48.2 °F - 48.2 °F 100% 30.06 in - Calm Calm - N/A   Clear
2:45 AM 48.2 °F - 48.2 °F 100% 30.06 in - Calm Calm - N/A   Clear
3:15 AM 46.4 °F 44.4 °F 44.6 °F 93% 30.04 in - SSE 4.5 mph - N/A   Clear
3:45 AM - - - N/A% - 0.9 mi Variable 4.5 mph - N/A Fog Patches of Fog
4:15 AM 48.2 °F - 46.4 °F 93% 30.04 in - Calm Calm - N/A   Clear
4:45 AM 46.4 °F - 46.4 °F 100% 30.04 in - Calm Calm - N/A   Clear
5:15 AM 46.4 °F - 44.6 °F 93% 30.04 in - SE 2.2 mph - N/A   Clear
5:45 AM 44.6 °F - 44.6 °F 100% 30.04 in - SE 2.2 mph - N/A   Clear
6:15 AM 46.4 °F - 46.4 °F 100% 30.04 in - SE 2.2 mph - N/A   Clear
6:45 AM - - - N/A% - - Variable 4.5 mph - N/A   Clear
7:15 AM 46.4 °F - 46.4 °F 100% 30.04 in - SSE 2.2 mph - N/A   Clear
7:45 AM 50.0 °F - 50.0 °F 100% 30.04 in - SSE 2.2 mph - N/A   Clear
8:15 AM 57.2 °F - 55.4 °F 94% 30.04 in - Calm Calm - N/A   Clear
8:45 AM 62.6 °F - 57.2 °F 82% 30.04 in - SSE 2.2 mph - N/A   Clear
9:15 AM 64.4 °F - 59.0 °F 83% 30.04 in - SSE 4.5 mph - N/A   Clear
9:45 AM - - - N/A% - - South 8.9 mph - N/A   Clear
10:15 AM 68.0 °F - 57.2 °F 68% 30.04 in - SSW 8.9 mph - N/A   Clear
10:45 AM 68.0 °F - 57.2 °F 68% 30.04 in - South 11.2 mph - N/A   Clear
11:15 AM 68.0 °F - 59.0 °F 73% 30.04 in - South 11.2 mph - N/A   Clear
11:45 AM 69.8 °F - 57.2 °F 64% 30.01 in - South 11.2 mph - N/A   Clear
12:15 PM 71.6 °F - 57.2 °F 60% 30.01 in - South 11.2 mph - N/A   Clear
12:45 PM - - - N/A% - 6.2 mi South 8.9 mph - N/A   Clear
1:15 PM 71.6 °F - 57.2 °F 60% 29.98 in 6.2 mi SSE 13.4 mph - N/A   Mostly Cloudy
1:45 PM 73.4 °F - 57.2 °F 57% 29.98 in 6.2 mi South 13.4 mph - N/A   Mostly Cloudy
2:15 PM 73.4 °F - 59.0 °F 61% 29.98 in 6.2 mi South 13.4 mph - N/A   Mostly Cloudy
2:45 PM 73.4 °F - 57.2 °F 57% 29.95 in 6.2 mi South 13.4 mph - N/A   Mostly Cloudy
3:15 PM 73.4 °F - 57.2 °F 57% 29.95 in 6.2 mi South 13.4 mph - N/A   Mostly Cloudy
3:45 PM 71.6 °F - 57.2 °F 60% 29.95 in 6.2 mi SSE 13.4 mph - N/A   Mostly Cloudy
4:15 PM 71.6 °F - 57.2 °F 60% 29.92 in 6.2 mi South 13.4 mph - N/A   Mostly Cloudy
4:45 PM 71.6 °F - 57.2 °F 60% 29.92 in 6.2 mi South 13.4 mph - N/A   Mostly Cloudy
5:15 PM 69.8 °F - 57.2 °F 64% 29.92 in 6.2 mi South 13.4 mph - N/A   Mostly Cloudy
5:45 PM 69.8 °F - 57.2 °F 64% 29.92 in 6.2 mi South 13.4 mph - N/A   Mostly Cloudy
6:45 PM - - - N/A% - - South 11.2 mph - N/A   Clear
7:15 PM 64.4 °F - 57.2 °F 77% 29.92 in - South 8.9 mph - N/A   Clear
7:45 PM 64.4 °F - 57.2 °F 77% 29.92 in - SSE 8.9 mph - N/A   Clear
8:15 PM 64.4 °F - 57.2 °F 77% 29.92 in - South 6.7 mph - N/A   Clear
8:45 PM 64.4 °F - 57.2 °F 77% 29.92 in - South 6.7 mph - N/A   Clear
9:15 PM 64.4 °F - 57.2 °F 77% 29.92 in - South 11.2 mph - N/A   Clear
9:45 PM - - - N/A% - 3.1 mi SW 11.2 mph - N/A Rain Rain Showers
10:15 PM 64.4 °F - 55.4 °F 73% 29.95 in - South 8.9 mph - N/A   Clear
10:45 PM 62.6 °F - 55.4 °F 77% 29.98 in - South 8.9 mph - N/A   Clear
11:15 PM 62.6 °F - 57.2 °F 82% 30.01 in - WSW 8.9 mph - N/A   Clear
11:45 PM 64.4 °F - 55.4 °F 73% 30.01 in - WNW 8.9 mph - N/A   Clear